Stevensville, MD

7:39 PM EST on November 19, 2017 (GMT -0500)
Stevensville

Weather History for KW29 - January, 2014

Change the Weather History Date:

Friday, January 17, 2014

  Actual Average (KESN) Record (KESN)
Temperature  
Mean Temperature 37 °F -  
Max Temperature 42 °F 41 °F 66 °F (1953)
Min Temperature 32 °F 22 °F 1 °F (1977)
Degree Days  
Heating Degree Days 28    
Moisture  
Dew Point 29 °F    
Average Humidity 74    
Maximum Humidity 93    
Minimum Humidity 53    
Precipitation  
Precipitation 0.00 in - - ()
Sea Level Pressure  
Sea Level Pressure 29.93 in    
Wind  
Wind Speed 5 mph (SSE)    
Max Wind Speed 9 mph    
Max Gust Speed -    
Visibility 10 miles    
Events      
Averages and records for this station are not official NWS values.
T = Trace of Precipitation, MM = Missing Value Source: NWS Daily Summary

Daily Weather History Graph

Daily Weather History Graph

Search for Another Location

Airport or City:

Trip Planner

Search our weather history database for the weather conditions in past years. The results will help you decide how hot, cold, wet, or windy it might be!

Date:

Astronomy

Jan. 17, 2014 Rise Set
Actual Time 7:21 AM EST 5:09 PM EST
Civil Twilight 6:52 AM EST 5:38 PM EST
Nautical Twilight 6:19 AM EST 6:11 PM EST
Astronomical Twilight 5:48 AM EST 6:43 PM EST
Moon 6:52 PM EST (1/17) 7:49 AM EST (1/17)
Length of Visible Light 10h 45m
Length of Day
9h 47m
Full, 98% of the Moon is Illuminated
Jan 17
Full
Jan 24
Last Quarter
Jan 30
New
Feb 6
First Quarter
Feb 14
Full

Hourly Weather History & Observations

Time (EST) Temp. Windchill Dew Point Humidity Pressure Visibility Wind Dir Wind Speed Gust Speed Precip Events Conditions
12:12 AM 33.8 °F 29.6 °F 28.4 °F 81% 29.97 in 10.0 mi South 4.6 mph - N/A   Clear
12:32 AM 32.0 °F 27.5 °F 28.4 °F 87% 29.97 in 10.0 mi South 4.6 mph - N/A   Clear
12:52 AM 32.0 °F 27.5 °F 30.2 °F 93% 29.97 in 10.0 mi South 4.6 mph - N/A   Clear
1:12 AM 32.0 °F 27.5 °F 30.2 °F 93% 29.97 in 10.0 mi South 4.6 mph - N/A   Clear
1:32 AM 32.0 °F 26.4 °F 30.2 °F 93% 29.97 in 10.0 mi South 5.8 mph - N/A   Clear
1:53 AM 33.8 °F 27.7 °F 30.2 °F 87% 29.97 in 10.0 mi South 6.9 mph - N/A   Clear
2:13 AM 33.8 °F 27.7 °F 30.2 °F 87% 29.97 in 10.0 mi South 6.9 mph - N/A   Scattered Clouds
2:33 AM 33.8 °F 27.0 °F 30.2 °F 87% 29.97 in 10.0 mi South 8.1 mph - N/A   Scattered Clouds
2:53 AM 33.8 °F 27.0 °F 30.2 °F 87% 29.95 in 10.0 mi South 8.1 mph - N/A   Clear
3:13 AM 33.8 °F 27.7 °F 30.2 °F 87% 29.96 in 10.0 mi South 6.9 mph - N/A   Scattered Clouds
3:33 AM 33.8 °F 27.7 °F 30.2 °F 87% 29.95 in 10.0 mi South 6.9 mph - N/A   Scattered Clouds
3:53 AM 33.8 °F 27.0 °F 30.2 °F 87% 29.94 in 10.0 mi South 8.1 mph - N/A   Scattered Clouds
4:13 AM 33.8 °F 27.0 °F 32.0 °F 93% 29.94 in 10.0 mi SSE 8.1 mph - N/A   Clear
4:33 AM 33.8 °F 26.4 °F 30.2 °F 87% 29.94 in 10.0 mi SSE 9.2 mph - N/A   Clear
4:53 AM 33.8 °F 27.0 °F 30.2 °F 87% 29.93 in 10.0 mi South 8.1 mph - N/A   Clear
5:13 AM 33.8 °F 28.6 °F 32.0 °F 93% 29.93 in 10.0 mi South 5.8 mph - N/A   Clear
5:33 AM 33.8 °F 26.4 °F 30.2 °F 87% 29.92 in 10.0 mi SSE 9.2 mph - N/A   Clear
5:53 AM 33.8 °F 28.6 °F 30.2 °F 87% 29.94 in 10.0 mi South 5.8 mph - N/A   Clear
6:13 AM 33.8 °F 29.6 °F 28.4 °F 81% 29.94 in 10.0 mi South 4.6 mph - N/A   Clear
6:33 AM 33.8 °F 28.6 °F 30.2 °F 87% 29.94 in 10.0 mi South 5.8 mph - N/A   Clear
6:53 AM 33.8 °F 29.6 °F 30.2 °F 87% 29.95 in 10.0 mi SSW 4.6 mph - N/A   Clear
7:13 AM 32.0 °F - 30.2 °F 93% 29.95 in 10.0 mi Calm Calm - N/A   Clear
7:33 AM 32.0 °F 28.7 °F 28.4 °F 87% 29.96 in 10.0 mi SSE 3.5 mph - N/A   Clear
7:53 AM 32.0 °F 27.5 °F 28.4 °F 87% 29.96 in 10.0 mi South 4.6 mph - N/A   Clear
8:13 AM 33.8 °F 28.6 °F 30.2 °F 87% 29.96 in 10.0 mi South 5.8 mph - N/A   Clear
8:33 AM 33.8 °F 30.8 °F 28.4 °F 81% 29.98 in 10.0 mi South 3.5 mph - N/A   Clear
8:53 AM 35.6 °F 31.7 °F 28.4 °F 75% 29.98 in 10.0 mi SSW 4.6 mph - N/A   Clear
9:13 AM 37.4 °F 31.4 °F 28.4 °F 70% 29.98 in 10.0 mi SSW 8.1 mph - N/A   Clear
9:33 AM 37.4 °F 32.8 °F 28.4 °F 70% 29.99 in 10.0 mi South 5.8 mph - N/A   Clear
9:53 AM 37.4 °F 32.1 °F 26.6 °F 65% 29.99 in 10.0 mi SSW 6.9 mph - N/A   Clear
10:13 AM 37.4 °F 32.8 °F 26.6 °F 65% 29.98 in 10.0 mi South 5.8 mph - N/A   Clear
10:34 AM 37.4 °F 32.1 °F 28.4 °F 70% 29.99 in 10.0 mi South 6.9 mph - N/A   Clear
10:54 AM 37.4 °F 31.4 °F 28.4 °F 70% 29.99 in 10.0 mi SSE 8.1 mph - N/A   Clear
11:14 AM 39.2 °F 34.2 °F 28.4 °F 65% 29.98 in 10.0 mi SSE 6.9 mph - N/A   Clear
11:34 AM 39.2 °F 33.6 °F 28.4 °F 65% 29.97 in 10.0 mi South 8.1 mph - N/A   Clear
11:54 AM 39.2 °F 34.2 °F 28.4 °F 65% 29.97 in 10.0 mi SSE 6.9 mph - N/A   Clear
12:14 PM 41.0 °F 35.8 °F 28.4 °F 61% 29.96 in 10.0 mi SSE 8.1 mph - N/A   Clear
12:34 PM 41.0 °F 35.2 °F 28.4 °F 61% 29.94 in 10.0 mi SSE 9.2 mph - N/A   Clear
12:54 PM 41.0 °F 35.8 °F 28.4 °F 61% 29.94 in 10.0 mi SSE 8.1 mph - N/A   Clear
1:14 PM 41.0 °F 35.8 °F 28.4 °F 61% 29.92 in 10.0 mi SE 8.1 mph - N/A   Clear
1:34 PM 41.0 °F 35.8 °F 28.4 °F 61% 29.92 in 10.0 mi SSE 8.1 mph - N/A   Clear
1:54 PM 41.0 °F 36.4 °F 28.4 °F 61% 29.92 in 10.0 mi SE 6.9 mph - N/A   Clear
2:14 PM 42.8 °F 38.6 °F 28.4 °F 57% 29.92 in 10.0 mi SSE 6.9 mph - N/A   Clear
2:34 PM 42.8 °F 38.6 °F 28.4 °F 57% 29.91 in 10.0 mi SE 6.9 mph - N/A   Clear
2:54 PM 42.8 °F 38.6 °F 28.4 °F 57% 29.90 in 10.0 mi SE 6.9 mph - N/A   Clear
3:14 PM 42.8 °F 38.6 °F 28.4 °F 57% 29.90 in 10.0 mi SSE 6.9 mph - N/A   Clear
3:34 PM 42.8 °F 39.3 °F 28.4 °F 57% 29.89 in 10.0 mi SE 5.8 mph - N/A   Clear
3:54 PM 42.8 °F 41.1 °F 26.6 °F 53% 29.89 in 10.0 mi SE 3.5 mph - N/A   Clear
4:14 PM 42.8 °F 41.1 °F 26.6 °F 53% 29.89 in 10.0 mi SSE 3.5 mph - N/A   Clear
4:34 PM 42.8 °F - 28.4 °F 57% 29.90 in 10.0 mi Calm Calm - N/A   Clear
4:54 PM 41.0 °F - 28.4 °F 61% 29.90 in 10.0 mi Calm Calm - N/A   Scattered Clouds
5:14 PM 41.0 °F - 28.4 °F 61% 29.91 in 10.0 mi Calm Calm - N/A   Scattered Clouds
5:34 PM 41.0 °F - 28.4 °F 61% 29.91 in 10.0 mi Calm Calm - N/A   Scattered Clouds
5:54 PM 41.0 °F - 30.2 °F 65% 29.92 in 10.0 mi Calm Calm - N/A   Scattered Clouds
6:14 PM 39.2 °F - 30.2 °F 70% 29.92 in 10.0 mi Calm Calm - N/A   Scattered Clouds
6:34 PM 41.0 °F - 32.0 °F 70% 29.91 in 10.0 mi Calm Calm - N/A   Scattered Clouds
6:55 PM 39.2 °F 35.9 °F 30.2 °F 70% 29.91 in 10.0 mi ESE 4.6 mph - N/A   Scattered Clouds
7:15 PM 39.2 °F 37.0 °F 30.2 °F 70% 29.91 in 10.0 mi North 3.5 mph - N/A   Scattered Clouds
7:35 PM 39.2 °F - 30.2 °F 70% 29.91 in 10.0 mi Calm Calm - N/A   Scattered Clouds
7:55 PM 37.4 °F 34.9 °F 30.2 °F 75% 29.91 in 10.0 mi NNE 3.5 mph - N/A   Scattered Clouds
8:15 PM 37.4 °F - 30.2 °F 75% 29.90 in 10.0 mi Calm Calm - N/A   Clear
8:35 PM 37.4 °F 34.9 °F 30.2 °F 75% 29.90 in 10.0 mi NE 3.5 mph - N/A   Clear
8:55 PM 37.4 °F - 32.0 °F 81% 29.89 in 10.0 mi Calm Calm - N/A   Clear
9:15 PM 37.4 °F 33.8 °F 32.0 °F 81% 29.89 in 10.0 mi ENE 4.6 mph - N/A   Clear
10:15 PM 37.4 °F 32.8 °F 30.2 °F 75% 29.85 in 10.0 mi East 5.8 mph - N/A   Clear
10:35 PM 39.2 °F 35.0 °F 30.2 °F 70% 29.84 in 10.0 mi ESE 5.8 mph - N/A   Clear
10:55 PM 39.2 °F 35.0 °F 30.2 °F 70% 29.84 in 10.0 mi SE 5.8 mph - N/A   Scattered Clouds
11:15 PM 41.0 °F 37.1 °F 32.0 °F 70% 29.82 in 10.0 mi SE 5.8 mph - N/A   Mostly Cloudy
11:35 PM 41.0 °F 36.4 °F 32.0 °F 70% 29.81 in 10.0 mi SSE 6.9 mph - N/A   Mostly Cloudy
11:55 PM 41.0 °F 37.1 °F 32.0 °F 70% 29.81 in 10.0 mi SSE 5.8 mph - N/A   Mostly Cloudy